| time (UTC) | temp F | wind direction | speed MPH | gust MPH | rain 1hr in | rain 24hr in | rain mn in | humidity % | barometer mb |
| 20260503002015 | 71 | 288 | 6.0 | 12.0 | 0.00 | 0.00 | 0.00 | 67 | 1011.8 |
| 20260503001015 | 71 | 272 | 6.0 | 12.0 | 0.00 | 0.00 | 0.00 | 66 | 1012.0 |
| 20260503000016 | 71 | 285 | 6.0 | 12.0 | 0.00 | 0.00 | 0.00 | 65 | 1011.8 |
| 20260502235016 | 72 | 276 | 3.0 | 11.0 | 0.00 | 0.00 | 0.00 | 66 | 1011.8 |
| 20260502234036 | 72 | 289 | 6.0 | 12.0 | 0.00 | 0.00 | 0.00 | 65 | 1012.0 |
| 20260502233036 | 73 | 275 | 5.0 | 14.0 | 0.00 | 0.00 | 0.00 | 65 | 1012.0 |
| 20260502232015 | 73 | 289 | 6.0 | 15.0 | 0.00 | 0.00 | 0.00 | 64 | 1011.9 |
| 20260502231016 | 73 | 276 | 7.0 | 13.0 | 0.00 | 0.00 | 0.00 | 64 | 1012.1 |
| 20260502230036 | 74 | 272 | 5.0 | 12.0 | 0.00 | 0.00 | 0.00 | 63 | 1012.1 |
| 20260502225015 | 74 | 284 | 7.0 | 14.0 | 0.00 | 0.00 | 0.00 | 62 | 1012.1 |
| 20260502224015 | 75 | 295 | 8.0 | 14.0 | 0.00 | 0.00 | 0.00 | 62 | 1012.3 |
| 20260502223016 | 76 | 292 | 6.0 | 17.0 | 0.00 | 0.00 | 0.00 | 61 | 1012.4 |
| 20260502222016 | 76 | 278 | 6.0 | 13.0 | 0.00 | 0.00 | 0.00 | 61 | 1012.6 |
| 20260502221015 | 77 | 290 | 6.0 | 13.0 | 0.00 | 0.00 | 0.00 | 60 | 1012.7 |
| 20260502220016 | 77 | 289 | 7.0 | 15.0 | 0.00 | 0.00 | 0.00 | 60 | 1012.8 |
| 20260502215016 | 78 | 269 | 5.0 | 12.0 | 0.00 | 0.00 | 0.00 | 59 | 1012.9 |
| 20260502214035 | 78 | 295 | 7.0 | 16.0 | 0.00 | 0.00 | 0.00 | 60 | 1013.1 |
| 20260502213055 | 78 | 272 | 7.0 | 12.0 | 0.00 | 0.00 | 0.00 | 60 | 1013.3 |
| 20260502212015 | 77 | 286 | 7.0 | 12.0 | 0.00 | 0.00 | 0.00 | 60 | 1013.5 |
| 20260502211015 | 78 | 273 | 8.0 | 14.0 | 0.00 | 0.00 | 0.00 | 60 | 1013.5 |
| 20260502210035 | 78 | 269 | 8.0 | 14.0 | 0.00 | 0.00 | 0.00 | 59 | 1013.4 |
| 20260502205015 | 79 | 279 | 6.0 | 15.0 | 0.00 | 0.00 | 0.00 | 59 | 1013.2 |
| 20260502204015 | 79 | 302 | 8.0 | 14.0 | 0.00 | 0.00 | 0.00 | 58 | 1013.4 |
| 20260502203015 | 79 | 290 | 6.0 | 12.0 | 0.00 | 0.00 | 0.00 | 58 | 1013.4 |
| 20260502202035 | 80 | 264 | 6.0 | 14.0 | 0.00 | 0.00 | 0.00 | 58 | 1013.4 |
| 20260502201015 | 79 | 281 | 7.0 | 13.0 | 0.00 | 0.00 | 0.00 | 59 | 1013.2 |
| 20260502200015 | 79 | 288 | 7.0 | 12.0 | 0.00 | 0.00 | 0.00 | 59 | 1013.5 |
| 20260502195015 | 79 | 279 | 6.0 | 13.0 | 0.00 | 0.00 | 0.00 | 59 | 1013.8 |
| 20260502194036 | 79 | 295 | 7.0 | 13.0 | 0.00 | 0.00 | 0.00 | 59 | 1013.8 |
| 20260502193015 | 78 | 317 | 6.0 | 11.0 | 0.00 | 0.00 | 0.00 | 62 | 1013.9 |
| 20260502192035 | 77 | 283 | 4.0 | 10.0 | 0.00 | 0.00 | 0.00 | 62 | 1014.0 |
| 20260502191015 | 76 | 294 | 3.0 | 10.0 | 0.00 | 0.00 | 0.00 | 63 | 1014.1 |
| 20260502190035 | 75 | 294 | 4.0 | 10.0 | 0.00 | 0.00 | 0.00 | 64 | 1014.4 |
| 20260502185015 | 74 | 317 | 3.0 | 10.0 | 0.00 | 0.00 | 0.00 | 65 | 1014.5 |
| 20260502184015 | 72 | 307 | 2.0 | 9.0 | 0.00 | 0.00 | 0.00 | 68 | 1014.6 |
| 20260502183035 | 70 | 308 | 3.0 | 7.0 | 0.00 | 0.00 | 0.00 | 71 | 1014.7 |
| 20260502182015 | 69 | 311 | 2.0 | 8.0 | 0.00 | 0.00 | 0.00 | 72 | 1015.0 |
| 20260502181015 | 68 | 347 | 1.0 | 6.0 | 0.00 | 0.00 | 0.00 | 72 | 1015.0 |
| 20260502164015 | 64 | 283 | 2.0 | 7.0 | 0.00 | 0.00 | 0.00 | 78 | 1015.7 |
| 20260502163015 | 64 | 321 | 2.0 | 5.0 | 0.00 | 0.00 | 0.00 | 78 | 1015.4 |
| 20260502162035 | 64 | 350 | 0.0 | 5.0 | 0.00 | 0.00 | 0.00 | 78 | 1015.4 |
| 20260502161017 | 64 | 346 | 3.0 | 5.0 | 0.00 | 0.00 | 0.00 | 79 | 1015.5 |
| 20260502152016 | 62 | 61 | 1.0 | 3.0 | 0.00 | 0.00 | 0.00 | 80 | 1015.4 |
| 20260502151037 | 62 | 59 | 1.0 | 4.0 | 0.00 | 0.00 | 0.00 | 80 | 1015.4 |
| 20260502123017 | 62 | 0.0 | 0.0 | 0.00 | 0.00 | 0.00 | 79 | 1014.5 | |
| 20260502122016 | 62 | 0.0 | 0.0 | 0.00 | 0.00 | 0.00 | 79 | 1014.4 | |
| 20260502121017 | 62 | 0.0 | 0.0 | 0.00 | 0.00 | 0.00 | 79 | 1014.4 | |
| 20260502115016 | 63 | 232 | 1.0 | 4.0 | 0.00 | 0.00 | 0.00 | 79 | 1014.3 |
| 20260502114016 | 63 | 234 | 1.0 | 4.0 | 0.00 | 0.00 | 0.00 | 79 | 1014.3 |
| 20260502113016 | 63 | 320 | 2.0 | 3.0 | 0.00 | 0.00 | 0.00 | 79 | 1014.2 |
| 20260502112017 | 62 | 313 | 2.0 | 4.0 | 0.00 | 0.00 | 0.00 | 79 | 1014.2 |
| 20260502111017 | 62 | 0.0 | 0.0 | 0.00 | 0.00 | 0.00 | 79 | 1014.2 | |
| 20260502110016 | 62 | 0.0 | 0.0 | 0.00 | 0.00 | 0.00 | 79 | 1014.2 | |
| 20260502105037 | 62 | 0.0 | 0.0 | 0.00 | 0.00 | 0.00 | 79 | 1014.2 | |
| 20260502104016 | 62 | 0.0 | 0.0 | 0.00 | 0.00 | 0.00 | 79 | 1014.2 | |
| 20260502103037 | 62 | 242 | 0.0 | 3.0 | 0.00 | 0.00 | 0.00 | 79 | 1014.2 |
| 20260502102017 | 62 | 242 | 1.0 | 4.0 | 0.00 | 0.00 | 0.00 | 79 | 1014.2 |
| 20260502101016 | 62 | 277 | 1.0 | 3.0 | 0.00 | 0.00 | 0.00 | 79 | 1014.2 |
| 20260502091016 | 62 | 3 | 2.0 | 4.0 | 0.00 | 0.00 | 0.00 | 79 | 1014.3 |
| 20260502071016 | 63 | 11 | 1.0 | 3.0 | 0.00 | 0.00 | 0.00 | 78 | 1015.0 |
| 20260502070017 | 63 | 11 | 1.0 | 3.0 | 0.00 | 0.00 | 0.00 | 78 | 1014.9 |
| 20260502065016 | 63 | 12 | 0.0 | 4.0 | 0.00 | 0.00 | 0.00 | 78 | 1014.9 |
| 20260502064017 | 63 | 14 | 0.0 | 4.0 | 0.00 | 0.00 | 0.00 | 78 | 1014.9 |
| 20260502063018 | 63 | 0.0 | 1.0 | 0.00 | 0.00 | 0.00 | 77 | 1014.9 | |
| 20260502062017 | 63 | 23 | 2.0 | 3.0 | 0.00 | 0.00 | 0.00 | 77 | 1014.8 |
| 20260502061016 | 63 | 44 | 1.0 | 4.0 | 0.00 | 0.00 | 0.00 | 77 | 1014.9 |
| 20260502060017 | 64 | 22 | 2.0 | 5.0 | 0.00 | 0.00 | 0.00 | 77 | 1014.9 |
| 20260502055017 | 64 | 337 | 1.0 | 4.0 | 0.00 | 0.00 | 0.00 | 76 | 1015.0 |
| 20260502054016 | 64 | 335 | 1.0 | 3.0 | 0.00 | 0.00 | 0.00 | 76 | 1014.9 |
| 20260502053057 | 64 | 338 | 1.0 | 3.0 | 0.00 | 0.00 | 0.00 | 76 | 1014.8 |
| 20260502052036 | 64 | 337 | 2.0 | 5.0 | 0.00 | 0.00 | 0.00 | 76 | 1014.7 |
| 20260502051017 | 64 | 338 | 1.0 | 5.0 | 0.00 | 0.00 | 0.00 | 76 | 1014.8 |
| 20260502050017 | 64 | 347 | 2.0 | 4.0 | 0.00 | 0.00 | 0.00 | 76 | 1014.8 |
| 20260502045017 | 64 | 340 | 2.0 | 4.0 | 0.00 | 0.00 | 0.00 | 76 | 1014.8 |
| 20260502044017 | 64 | 314 | 2.0 | 4.0 | 0.00 | 0.00 | 0.00 | 77 | 1014.6 |
| 20260502043016 | 64 | 305 | 1.0 | 4.0 | 0.00 | 0.00 | 0.00 | 77 | 1014.6 |
| 20260502042016 | 64 | 262 | 0.0 | 4.0 | 0.00 | 0.00 | 0.00 | 77 | 1014.5 |
| 20260502041016 | 64 | 288 | 1.0 | 4.0 | 0.00 | 0.00 | 0.00 | 76 | 1014.5 |
| 20260502040016 | 64 | 292 | 2.0 | 4.0 | 0.00 | 0.00 | 0.00 | 76 | 1014.5 |
| 20260502035016 | 64 | 299 | 2.0 | 4.0 | 0.00 | 0.00 | 0.00 | 76 | 1014.3 |
| 20260502034117 | 64 | 296 | 1.0 | 3.0 | 0.00 | 0.00 | 0.00 | 75 | 1014.3 |
| 20260502033017 | 64 | 300 | 1.0 | 4.0 | 0.00 | 0.00 | 0.00 | 75 | 1014.0 |
| 20260502032018 | 65 | 309 | 2.0 | 4.0 | 0.00 | 0.00 | 0.00 | 75 | 1014.0 |
| 20260502031036 | 65 | 323 | 2.0 | 5.0 | 0.00 | 0.00 | 0.00 | 75 | 1013.9 |
| 20260502030016 | 65 | 306 | 3.0 | 5.0 | 0.00 | 0.00 | 0.00 | 75 | 1013.8 |
| 20260502025036 | 65 | 284 | 2.0 | 4.0 | 0.00 | 0.00 | 0.00 | 74 | 1013.8 |
| 20260502024016 | 65 | 281 | 2.0 | 7.0 | 0.00 | 0.00 | 0.00 | 74 | 1013.7 |
| 20260502023036 | 65 | 265 | 3.0 | 6.0 | 0.00 | 0.00 | 0.00 | 74 | 1013.5 |
| 20260502022016 | 65 | 282 | 4.0 | 8.0 | 0.00 | 0.00 | 0.00 | 73 | 1013.5 |
| 20260502021036 | 66 | 273 | 3.0 | 8.0 | 0.00 | 0.00 | 0.00 | 73 | 1013.2 |
| 20260502020016 | 66 | 249 | 2.0 | 7.0 | 0.00 | 0.00 | 0.00 | 72 | 1013.2 |
| 20260502015016 | 67 | 245 | 3.0 | 8.0 | 0.00 | 0.00 | 0.00 | 71 | 1013.2 |
| 20260502014016 | 67 | 247 | 3.0 | 9.0 | 0.00 | 0.00 | 0.00 | 71 | 1013.2 |
| 20260502013017 | 68 | 226 | 4.0 | 11.0 | 0.00 | 0.00 | 0.00 | 70 | 1013.0 |
| 20260502012016 | 68 | 221 | 3.0 | 7.0 | 0.00 | 0.00 | 0.00 | 69 | 1013.0 |
| 20260502011017 | 68 | 256 | 4.0 | 10.0 | 0.00 | 0.00 | 0.00 | 69 | 1012.9 |
| 20260502010016 | 69 | 264 | 2.0 | 8.0 | 0.00 | 0.00 | 0.00 | 68 | 1012.8 |
| 20260502005016 | 69 | 232 | 3.0 | 10.0 | 0.00 | 0.00 | 0.00 | 68 | 1012.8 |
| 20260502004018 | 70 | 223 | 5.0 | 10.0 | 0.00 | 0.00 | 0.00 | 67 | 1012.8 |
| 20260502003016 | 70 | 217 | 4.0 | 12.0 | 0.00 | 0.00 | 0.00 | 66 | 1012.7 |